When you browse on this site, cookies collect data to enhance your experience and personalize the content and advertising you see.
Visit our Privacy Policy to learn more. By continuing to use the site, you agree to this use of cookies and data.

Stündliche Wetter Pasynki

Heute, 26 September, Samstag

Zeit Temperatur Niederschläge Wind Luftdruck Luftfeuchtigkeit
00:00 +14°C° 0 mm 4 m/S 746 mmHg 60%
01:00 +14°C° 0 mm 4 m/S 746 mmHg 61%
02:00 +13°C° 0 mm 4 m/S 746 mmHg 63%
03:00 +13°C° 0 mm 4 m/S 747 mmHg 63%
04:00 +13°C° 0 mm 4 m/S 747 mmHg 64%
05:00 +12°C° 0 mm 4 m/S 747 mmHg 65%
06:00 +12°C° 0 mm 4 m/S 747 mmHg 66%
07:00 +13°C° 0 mm 4 m/S 747 mmHg 62%
08:00 +14°C° 0 mm 5 m/S 747 mmHg 58%
09:00 +15°C° 0 mm 5 m/S 747 mmHg 54%
10:00 +17°C° 0 mm 5 m/S 747 mmHg 49%
11:00 +20°C° 0 mm 6 m/S 747 mmHg 45%
12:00 +21°C° 0 mm 6 m/S 747 mmHg 41%
13:00 +22°C° 0 mm 6 m/S 747 mmHg 41%
14:00 +22°C° 0 mm 6 m/S 747 mmHg 42%
15:00 +22°C° 0 mm 5 m/S 747 mmHg 42%
16:00 +21°C° 0 mm 5 m/S 747 mmHg 43%
17:00 +20°C° 0 mm 5 m/S 747 mmHg 45%
18:00 +19°C° 0 mm 5 m/S 747 mmHg 46%
19:00 +19°C° 0 mm 5 m/S 747 mmHg 45%
20:00 +19°C° 0 mm 5 m/S 747 mmHg 44%
21:00 +17°C° 0 mm 5 m/S 747 mmHg 44%
22:00 +17°C° 0 mm 5 m/S 747 mmHg 43%
23:00 +17°C° 0 mm 6 m/S 747 mmHg 41%

Morgen, 27 September, Sonntag

Zeit Temperatur Niederschläge Wind Luftdruck Luftfeuchtigkeit
00:00 +17°C° 0 mm 6 m/S 748 mmHg 40%
01:00 +16°C° 0 mm 6 m/S 748 mmHg 39%
02:00 +15°C° 0 mm 6 m/S 748 mmHg 39%
03:00 +14°C° 0 mm 5 m/S 748 mmHg 38%
04:00 +14°C° 0 mm 6 m/S 748 mmHg 39%
05:00 +13°C° 0 mm 6 m/S 748 mmHg 39%
06:00 +11°C° 0 mm 6 m/S 748 mmHg 40%
07:00 +13°C° 0 mm 6 m/S 749 mmHg 41%
08:00 +13°C° 0 mm 6 m/S 749 mmHg 42%
09:00 +12°C° 0 mm 7 m/S 749 mmHg 44%
10:00 +15°C° 0 mm 7 m/S 749 mmHg 41%
11:00 +16°C° 0 mm 7 m/S 749 mmHg 39%
12:00 +17°C° 0 mm 7 m/S 749 mmHg 37%
13:00 +18°C° 0 mm 7 m/S 749 mmHg 37%
14:00 +20°C° 0 mm 7 m/S 749 mmHg 36%
15:00 +20°C° 0 mm 7 m/S 749 mmHg 35%
16:00 +20°C° 0 mm 7 m/S 749 mmHg 37%
17:00 +19°C° 0 mm 6 m/S 749 mmHg 39%
18:00 +17°C° 0 mm 5 m/S 748 mmHg 41%
19:00 +17°C° 0 mm 6 m/S 749 mmHg 40%
20:00 +17°C° 0 mm 6 m/S 749 mmHg 38%
21:00 +17°C° 0 mm 7 m/S 749 mmHg 37%
22:00 +17°C° 0 mm 6 m/S 749 mmHg 37%
23:00 +16°C° 0 mm 6 m/S 749 mmHg 36%

übermorgen, 28 September, Montag

Zeit Temperatur Niederschläge Wind Luftdruck Luftfeuchtigkeit
00:00 +16°C° 0 mm 6 m/S 749 mmHg 36%
01:00 +15°C° 0.1 mm 6 m/S 749 mmHg 38%
02:00 +15°C° 0.1 mm 5 m/S 749 mmHg 39%
03:00 +14°C° 0.1 mm 5 m/S 749 mmHg 41%
04:00 +14°C° 0.8 mm 5 m/S 749 mmHg 48%
05:00 +13°C° 0.8 mm 5 m/S 749 mmHg 55%
06:00 +12°C° 0.8 mm 5 m/S 750 mmHg 63%
07:00 +13°C° 0 mm 6 m/S 750 mmHg 64%
08:00 +13°C° 0 mm 6 m/S 750 mmHg 65%
09:00 +14°C° 0 mm 6 m/S 750 mmHg 67%
10:00 +15°C° 0 mm 6 m/S 750 mmHg 64%
11:00 +16°C° 0 mm 6 m/S 750 mmHg 60%
12:00 +17°C° 0 mm 6 m/S 751 mmHg 57%
13:00 +17°C° 0 mm 6 m/S 751 mmHg 56%
14:00 +19°C° 0 mm 5 m/S 751 mmHg 55%
15:00 +19°C° 0 mm 5 m/S 751 mmHg 53%
16:00 +17°C° 0 mm 5 m/S 751 mmHg 54%
17:00 +18°C° 0 mm 4 m/S 751 mmHg 54%
18:00 +17°C° 0 mm 4 m/S 751 mmHg 55%
19:00 +17°C° 0 mm 4 m/S 751 mmHg 54%
20:00 +17°C° 0 mm 4 m/S 751 mmHg 53%
21:00 +16°C° 0 mm 5 m/S 751 mmHg 53%
22:00 +15°C° 0 mm 4 m/S 751 mmHg 51%
23:00 +15°C° 0 mm 4 m/S 751 mmHg 49%

29 September, Dienstag

Zeit Temperatur Niederschläge Wind Luftdruck Luftfeuchtigkeit
00:00 +15°C° 0 mm 4 m/S 751 mmHg 46%
01:00 +15°C° 0 mm 4 m/S 751 mmHg 44%
02:00 +15°C° 0 mm 4 m/S 751 mmHg 42%
03:00 +15°C° 0 mm 5 m/S 751 mmHg 40%
04:00 +14°C° 0 mm 5 m/S 751 mmHg 40%
05:00 +14°C° 0 mm 5 m/S 751 mmHg 40%
06:00 +14°C° 0 mm 5 m/S 751 mmHg 41%
07:00 +14°C° 0 mm 6 m/S 751 mmHg 42%
08:00 +14°C° 0 mm 6 m/S 751 mmHg 44%
09:00 +14°C° 0 mm 6 m/S 751 mmHg 45%
10:00 +15°C° 0 mm 7 m/S 750 mmHg 43%
11:00 +15°C° 0 mm 7 m/S 750 mmHg 41%
12:00 +16°C° 0 mm 7 m/S 750 mmHg 38%
13:00 +17°C° 0 mm 7 m/S 750 mmHg 37%
14:00 +17°C° 0 mm 7 m/S 750 mmHg 37%
15:00 +17°C° 0 mm 7 m/S 750 mmHg 36%
16:00 +17°C° 0 mm 6 m/S 750 mmHg 38%
17:00 +16°C° 0 mm 6 m/S 749 mmHg 40%
18:00 +15°C° 0 mm 5 m/S 749 mmHg 42%
19:00 +15°C° 0 mm 5 m/S 749 mmHg 41%
20:00 +14°C° 0 mm 5 m/S 749 mmHg 39%
21:00 +14°C° 0 mm 5 m/S 749 mmHg 38%
22:00 +14°C° 0 mm 5 m/S 749 mmHg 37%
23:00 +14°C° 0 mm 5 m/S 748 mmHg 35%

30 September, Mittwoch

Zeit Temperatur Niederschläge Wind Luftdruck Luftfeuchtigkeit
00:00 +14°C° 0 mm 6 m/S 748 mmHg 33%
01:00 +13°C° 0 mm 5 m/S 748 mmHg 33%
02:00 +13°C° 0 mm 5 m/S 748 mmHg 33%
03:00 +12°C° 0 mm 5 m/S 748 mmHg 33%
04:00 +12°C° 0 mm 5 m/S 748 mmHg 33%
05:00 +11°C° 0 mm 6 m/S 748 mmHg 34%
06:00 +11°C° 0 mm 6 m/S 748 mmHg 34%
07:00 +12°C° 0 mm 7 m/S 748 mmHg 35%
08:00 +12°C° 0 mm 7 m/S 748 mmHg 37%
09:00 +12°C° 0 mm 8 m/S 747 mmHg 38%
10:00 +15°C° 0 mm 8 m/S 747 mmHg 35%
11:00 +16°C° 0 mm 8 m/S 747 mmHg 33%
12:00 +17°C° 0 mm 9 m/S 747 mmHg 30%
13:00 +17°C° 0 mm 9 m/S 747 mmHg 30%
14:00 +18°C° 0 mm 8 m/S 747 mmHg 29%
15:00 +18°C° 0 mm 8 m/S 746 mmHg 28%
16:00 +17°C° 0 mm 8 m/S 746 mmHg 30%
17:00 +17°C° 0 mm 7 m/S 746 mmHg 31%
18:00 +16°C° 0 mm 6 m/S 746 mmHg 33%
19:00 +16°C° 0 mm 6 m/S 746 mmHg 33%
20:00 +16°C° 0 mm 6 m/S 746 mmHg 34%
21:00 +16°C° 0 mm 6 m/S 746 mmHg 34%
22:00 +15°C° 0 mm 6 m/S 746 mmHg 35%
23:00 +15°C° 0 mm 6 m/S 746 mmHg 35%

1 Oktober, Donnerstag

Zeit Temperatur Niederschläge Wind Luftdruck Luftfeuchtigkeit
00:00 +15°C° 0 mm 7 m/S 746 mmHg 36%
01:00 +15°C° 0 mm 7 m/S 746 mmHg 37%
02:00 +14°C° 0 mm 7 m/S 746 mmHg 39%
03:00 +14°C° 0 mm 7 m/S 746 mmHg 40%
04:00 +14°C° 0 mm 7 m/S 747 mmHg 41%
05:00 +14°C° 0 mm 7 m/S 747 mmHg 41%
06:00 +14°C° 0 mm 7 m/S 747 mmHg 42%
07:00 +13°C° 0 mm 8 m/S 747 mmHg 42%
08:00 +13°C° 0 mm 8 m/S 747 mmHg 43%
09:00 +13°C° 0 mm 9 m/S 747 mmHg 43%
10:00 +16°C° 0 mm 9 m/S 748 mmHg 40%
11:00 +17°C° 0 mm 9 m/S 748 mmHg 38%
12:00 +18°C° 0 mm 9 m/S 748 mmHg 35%
13:00 +18°C° 0 mm 9 m/S 748 mmHg 34%
14:00 +19°C° 0 mm 9 m/S 748 mmHg 33%
15:00 +20°C° 0 mm 8 m/S 748 mmHg 31%
16:00 +18°C° 0 mm 7 m/S 748 mmHg 33%
17:00 +19°C° 0 mm 6 m/S 748 mmHg 35%
18:00 +17°C° 0 mm 5 m/S 748 mmHg 37%
19:00 +17°C° 0 mm 5 m/S 748 mmHg 37%
20:00 +16°C° 0 mm 6 m/S 748 mmHg 37%
21:00 +16°C° 0 mm 6 m/S 749 mmHg 37%
22:00 +16°C° 0 mm 6 m/S 749 mmHg 39%
23:00 +15°C° 0 mm 6 m/S 749 mmHg 41%
Mehr zeigen